Content
SEND FEEDBACK

Daily
Averages
Monthly
Summary
United States of America

FOUNTAIN, COLORADO


Home > North America > United States > Colorado
Elevation: 5852 feet     Latitude: 38 41N     Longitude: 104 46W

WEATHER
 
SELECT A DAY
Number of Records: 196,000;   Date Range: 1/1/95 - 7/23/14
 
SHARE

PRINT THIS DATA

[ ← Previous Day ]
WEATHER ALMANAC - JANUARY 31, 2013
[ Next Day → ]
[ °C ]   °F
Weather ElementAverageHighLow
Temperature34.8 °F44.1 °F (1:54 pm)21.9 °F (11:54 pm)
Dewpoint14.2 °F21 °F (4:54 pm)8.1 °F (4:54 am)
Humidity44.6 %75 % (11:54 pm)32 % (12:54 pm)
Barometer30.11 in30.23 in (8:54 pm)29.91 in (3:36 am)
Wind Speed10.1 mph19.6 mph (3:36 am)
Wind Gust32.2 mph (3:54 am)
Weather ElementAverage
Visibility10 mi
Wind DirectionSSW (192 °)

Weather ElementTotal
Precipitation---
Heating Degree Days32 (Base 65)
Averaged from 25 records on January 31, 2013
WEATHER CONDITIONS BREAKOUT
WIND DIRECTION BREAKOUT
WEATHER BY HOUR - JANUARY 31, 2013
[ °C ]   °F
Local TimeTemperatureDewpointHumidityBarometerVisibilityWind DirectionWind SpeedGust SpeedPrecipitationEventsConditions
1:54 AM32.0 °F9.0 °F38 %29.99 in10.0 miWest (270°)12.7 mph21.9 mphPartly Cloudy
2:54 AM28.9 °F9.0 °F43 %30.00 in10.0 miSSE (160°)6.9 mphPartly Cloudy
3:36 AM35.6 °F10.4 °F35 %29.91 in10.0 miWNW (290°)19.6 mph28.8 mphPartly Cloudy
3:54 AM35.1 °F10.9 °F37 %29.96 in10.0 miWNW (300°)19.6 mph32.2 mphPartly Cloudy
4:54 AM33.1 °F8.1 °F35 %30.00 in10.0 miNNW (330°)6.9 mphPartly Cloudy
5:54 AM30.0 °F10.0 °F43 %30.06 in10.0 miNNW (340°)8.1 mphPartly Cloudy
6:54 AM30.0 °F9.0 °F41 %30.09 in10.0 miNW (320°)10.4 mphPartly Cloudy
7:54 AM34.0 °F9.0 °F35 %30.09 in10.0 miNorth (350°)11.5 mphClear
8:54 AM36.0 °F12.0 °F37 %30.13 in10.0 miNorth (360°)10.4 mphPartly Cloudy
9:43 AM39.2 °F14.0 °F36 %30.06 in10.0 miNorth (10°)13.8 mphPartly Cloudy
9:54 AM39.9 °F12.9 °F33 %30.13 in10.0 miNorth (360°)11.5 mphPartly Cloudy
10:54 AM42.1 °F15.1 °F34 %30.12 in10.0 miNE (40°)9.2 mphPartly Cloudy
11:54 AM42.1 °F15.1 °F34 %30.10 in10.0 miNNE (30°)10.4 mphPartly Cloudy
12:54 PM43.0 °F15.1 °F32 %30.10 in10.0 miSSE (160°)5.8 mphPartly Cloudy
1:54 PM44.1 °F16.0 °F32 %30.09 in10.0 miSSE (160°)10.4 mphPartly Cloudy
2:54 PM44.1 °F19.0 °F37 %30.11 in10.0 miSE (140°)13.8 mphPartly Cloudy
3:54 PM42.1 °F19.0 °F40 %30.10 in10.0 miSSE (160°)13.8 mphPartly Cloudy
4:54 PM37.9 °F21.0 °F51 %30.14 in10.0 miSouth (170°)10.4 mphPartly Cloudy
5:54 PM34.0 °F19.0 °F54 %30.20 in10.0 miSSE (160°)5.8 mphClear
6:54 PM33.1 °F18.0 °F54 %30.22 in10.0 miSouth (180°)8.1 mphClear
7:54 PM30.9 °F18.0 °F59 %30.22 in10.0 miSE (140°)4.6 mphClear
8:54 PM30.0 °F17.1 °F59 %30.23 in10.0 miESE (120°)9.2 mphClear
9:54 PM28.0 °F18.0 °F66 %30.20 in10.0 miSSE (150°)5.8 mphClear
10:54 PM23.0 °F16.0 °F74 %30.19 in10.0 miENE (70°)4.6 mphClear
11:54 PM21.9 °F15.1 °F75 %30.21 in10.0 miNNE (30°)8.1 mphClear
Hourly data recorded from KCOS, located miles away from Fountain, Colorado







STORIES FROM OUR PARTNERS